Погода в Питишеве

Россия / Чувашская Республика     55°45′07″N   46°03′13″E
темп.,
°C
ветер,
м/с
пор.,
м/с
влажн.,
%
обл.,
%
осадки,
мм/ч
давл.,
гПа
погр.,
м
29 июля, чт
чт2900:00+15ю336876 0.0 101330
03:00+15ю346788 0.0 101247
06:00+17ю3761100 0.0 1010200
09:00+17ю3888100 0.4 1010234
12:00+21ююз6769100 0.1 1009966
15:00+19ю5776100 0.2 1008589
18:00+19ююв358089 0.0 1005288
21:00+16юв1195100 0.1 100511
30 июля, пт
пт3000:00+16з229648 0.0 100428
03:00+16з389757 0.0 1005191
06:00+18зюз388973 0.0 1005235
09:00+24з4661100 0.0 1005740
12:00+27з5648100 0.0 10051693
15:00+28зюз3548100 0.0 1004947
18:00+22юз91274100 0.4 1005623
21:00+17юв1197100 2.4 100511
31 июля, сб
сб3100:00+17ю239739 0.1 100468
03:00+17ю359870 0.5 1003127
06:00+18зюз359558 0.0 1003205
09:00+23з577437 0.0 1004934
12:00+27з794192 0.1 10042368
15:00+25зюз5953100 0.1 10051577
18:00+25зюз49452 0.0 10051204
21:00+19зюз37620 0.0 100695
1 августа, вс
вс100:00+17зюз37646 0.0 100897
03:00+19юз375799 0.0 1008154
06:00+19зюз376145 0.0 1010228
09:00+25з584717 0.0 10101061
12:00+27зюз6739100 0.0 10101986
15:00+28з673598 0.0 10102142
18:00+27юз3542100 0.0 1010455
21:00+22ю37585 0.0 1010113
2 августа, пн
пн200:00+21ю313624 0.0 1009332
03:00+21ююз413590 0.0 1009302
06:00+23юз4105281 0.0 1009383
09:00+26юз5852100 0.3 1009549
12:00+30юз673967 0.0 10091105
15:00+32юз79364 0.0 10082112
18:00+28юз595354 0.2 1007372
21:00+20ю71673100 0.4 1009360